KB2UZY Weather Reports


Display with metric or nautical units.
time (UTC)temp
F
wind
direction
speed
MPH
gust
MPH
rain 1hr
in
rain 24hr
in
rain mn
in
humidity
%
barometer
mb
20260901084514 67 129 2.0 4.0 0.03 0.03 0.03 92 1015.2
20260901083014 67 156 1.0 5.0 0.01 0.01 0.01 91 1015.4
20260901081511 68 151 1.0 4.0 0.00 0.00 0.00 91 1015.4
20260901080014 68 100 0.0 4.0 0.00 0.00 0.00 91 1015.5
20260901074510 68 126 1.0 4.0 0.00 0.00 0.00 91 1015.5
20260901073017 68 142 0.0 3.0 0.00 0.00 0.00 91 1015.9
20260901071511 68 161 0.0 0.0 0.00 0.00 0.00 91 1016.0
20260901070006 68 167 0.0 2.0 0.00 0.00 0.00 91 1016.0
20260901064506 68 167 1.0 4.0 0.00 0.00 0.00 91 1016.2
20260901063005 68 151 0.0 3.0 0.00 0.00 0.00 90 1016.3
20260901061503 68 113 0.0 5.0 0.00 0.00 0.00 90 1016.2
20260901060003 68 148 0.0 3.0 0.00 0.00 0.00 90 1016.1
20260901054502 68 188 1.0 6.0 0.00 0.00 0.00 89 1016.6
20260901053114 69 192 1.0 5.0 0.00 0.00 0.00 87 1016.6
20260901051600 69 225 2.0 7.0 0.00 0.00 0.00 85 1016.8
20260901050056 69 238 4.0 9.0 0.00 0.00 0.00 83 1016.8
20260901044557 69 175 1.0 7.0 0.00 0.00 0.00 82 1016.6
20260901043055 69 166 2.0 7.0 0.00 0.00 0.00 81 1016.6
20260901041553 69 201 2.0 7.0 0.00 0.00 0.00 80 1016.7
20260901040051 69 200 2.0 5.0 0.00 0.00 0.00 79 1016.7
20260901034552 70 173 2.0 6.0 0.00 0.00 0.00 79 1016.9
20260901033051 70 163 4.0 10.0 0.00 0.00 0.00 78 1016.7
20260901031551 70 176 5.0 9.0 0.00 0.00 0.00 78 1016.9
20260901030049 70 179 3.0 7.0 0.00 0.00 0.00 77 1017.0
20260901024549 70 179 3.0 11.0 0.00 0.00 0.00 77 1017.0
20260901023051 71 199 1.0 6.0 0.00 0.00 0.00 78 1016.9
20260901021554 71 173 3.0 8.0 0.00 0.00 0.00 78 1016.7
20260901020050 71 177 2.0 9.0 0.00 0.00 0.00 77 1016.7
20260901014549 71 180 4.0 8.0 0.00 0.00 0.00 76 1016.8
20260901013100 72 162 4.0 9.0 0.00 0.00 0.00 74 1016.9
20260901011549 72 174 3.0 7.0 0.00 0.00 0.00 73 1016.8
20260901010051 72 247 3.0 6.0 0.00 0.00 0.00 71 1016.9
20260901004554 73 196 3.0 8.0 0.00 0.08 0.00 70 1016.8
20260901003054 73 211 3.0 7.0 0.00 0.08 0.00 70 1016.7
20260901001546 73 191 2.0 8.0 0.00 0.08 0.00 70 1016.6
20260901000044 73 173 3.0 10.0 0.00 0.08 0.00 69 1016.6
20260831234544 74 197 1.0 5.0 0.00 0.08 0.00 69 1016.6
20260831233042 74 168 2.0 7.0 0.00 0.08 0.00 70 1016.6
20260831231541 75 175 2.0 7.0 0.00 0.08 0.00 71 1016.7
20260831230040 75 167 3.0 6.0 0.00 0.08 0.00 70 1016.9
20260831224540 75 171 1.0 4.0 0.00 0.08 0.00 67 1016.9
20260831223042 76 143 0.0 3.0 0.00 0.08 0.00 67 1016.9
20260831221542 76 153 0.0 5.0 0.00 0.08 0.00 66 1017.1
20260831220038 76 174 1.0 6.0 0.00 0.08 0.00 65 1017.0
20260831214537 76 172 2.0 7.0 0.00 0.08 0.00 65 1017.1
20260831213043 77 130 3.0 7.0 0.00 0.08 0.00 64 1017.1
20260831211540 77 164 2.0 5.0 0.00 0.08 0.00 63 1017.0
20260831210036 78 190 1.0 6.0 0.00 0.08 0.00 62 1016.9
20260831204536 78 208 3.0 7.0 0.00 0.08 0.00 60 1017.1
20260831203039 79 182 1.0 7.0 0.00 0.08 0.00 59 1017.1
20260831201541 79 167 2.0 6.0 0.00 0.08 0.00 60 1017.1
20260831200033 78 213 1.0 5.0 0.00 0.08 0.00 61 1017.4
20260831194610 78 236 2.0 6.0 0.00 0.08 0.00 60 1017.5
20260831193033 78 221 2.0 7.0 0.00 0.08 0.00 59 1017.6
20260831191536 78 169 4.0 6.0 0.00 0.08 0.00 59 1017.6
20260831190038 78 138 3.0 9.0 0.00 0.08 0.00 58 1018.0
20260831184536 78 122 2.0 6.0 0.00 0.08 0.00 57 1018.1
20260831183031 78 192 2.0 7.0 0.00 0.08 0.00 59 1018.2
20260831181536 78 189 1.0 7.0 0.00 0.08 0.00 57 1018.2
20260831180029 79 171 3.0 8.0 0.00 0.08 0.00 55 1018.2
20260831174536 80 183 3.0 7.0 0.00 0.08 0.00 52 1018.3
20260831173028 80 191 2.0 7.0 0.00 0.08 0.00 52 1018.7
20260831171533 80 165 2.0 8.0 0.00 0.08 0.00 53 1018.7
20260831170026 80 213 2.0 6.0 0.00 0.08 0.00 56 1019.1
20260831164525 80 190 2.0 8.0 0.00 0.08 0.00 55 1019.0
20260831163030 79 166 1.0 8.0 0.00 0.08 0.00 58 1019.2
20260831161523 79 103 1.0 5.0 0.00 0.08 0.00 57 1019.2
20260831160022 79 86 1.0 8.0 0.00 0.08 0.00 56 1019.4
20260831154530 80 112 4.0 9.0 0.00 0.08 0.00 56 1019.3
20260831153031 80 220 0.0 7.0 0.00 0.08 0.00 59 1019.4
20260831151518 79 146 3.0 7.0 0.00 0.08 0.00 59 1019.2
20260831150016 79 182 0.0 3.0 0.00 0.08 0.00 66 1019.4
20260831144511 78 117 0.0 4.0 0.00 0.08 0.00 69 1019.5
20260831143010 77 360 0.0 6.0 0.00 0.08 0.00 70 1019.5
20260831141506 76 338 2.0 6.0 0.00 0.08 0.00 71 1019.5
20260831140007 76 28 2.0 6.0 0.00 0.08 0.00 73 1019.3
20260831134601 75 63 1.0 7.0 0.00 0.08 0.00 73 1019.3
20260831133103 75 13 2.0 5.0 0.00 0.08 0.00 77 1019.3
20260831131601 73 26 2.0 5.0 0.00 0.08 0.00 80 1019.2
20260831130052 71 337 2.0 4.0 0.00 0.08 0.00 87 1019.2
20260831124553 68 344 2.0 4.0 0.00 0.08 0.00 92 1019.3
20260831123043 66 313 3.0 5.0 0.00 0.08 0.00 94 1019.2
20260831121545 65 15 1.0 3.0 0.00 0.08 0.00 95 1019.3
20260831120041 65 234 0.0 0.0 0.00 0.08 0.00 95 1019.2
20260831114550 63 237 0.0 0.0 0.00 0.08 0.00 95 1019.2
20260831113038 62 236 0.0 0.0 0.00 0.08 0.00 95 1019.1
20260831111534 62 237 0.0 0.0 0.00 0.08 0.00 95 1018.8
20260831110031 61 237 0.0 0.0 0.00 0.08 0.00 94 1018.6
20260831104535 61 252 0.0 0.0 0.00 0.08 0.00 94 1018.5
20260831103026 61 251 0.0 0.0 0.00 0.08 0.00 93 1018.4
20260831101525 61 251 0.0 0.0 0.00 0.08 0.00 93 1018.2
20260831100023 61 251 0.0 0.0 0.00 0.08 0.00 93 1018.2
20260831094522 61 252 0.0 0.0 0.00 0.08 0.00 93 1018.1
20260831093023 61 252 0.0 0.0 0.00 0.08 0.00 93 1018.1
20260831091520 61 252 0.0 0.0 0.00 0.08 0.00 92 1018.2
20260831090018 61 252 0.0 0.0 0.00 0.08 0.00 92 1017.8